1498784400.77,26679,16.0,73172.0,2.67,-21.63,-23.79,0,*7B
1498784401.99,26680,16.0,73168.3,2.67,-21.17,-23.39,0,*7A
1498784403.21,26681,16.0,73168.3,2.67,-21.09,-23.39,0,*74
1498784404.44,26682,16.0,73164.0,2.69,-21.39,-23.79,0,*7E
1498784405.71,26683,16.0,73176.0,2.69,-21.53,-23.95,0,*71
1498784406.93,26684,16.0,73182.3,2.67,-21.09,-23.59,0,*77
1498784408.15,26685,16.0,73182.8,2.67,-20.93,-23.59,0,*74
1498784409.4,26686,16.0,73182.3,2.67,-21.03,-23.75,0,*71
1498784410.62,26687,16.0,73184.0,2.67,-21.09,-23.79,0,*76
1498784411.87,26688,16.0,73178.8,2.67,-21.33,-24.05,0,*7C
1498784413.13,26689,16.0,73174.5,2.69,-21.39,-24.21,0,*7F
1498784414.37,26690,16.0,73174.0,2.67,-21.39,-24.11,0,*7A
1498784415.63,26691,16.0,73174.8,2.69,-21.47,-24.21,0,*7F
1498784416.87,26692,16.0,73176.0,2.67,-21.39,-24.11,0,*78
1498784418.09,26693,16.0,73180.8,2.65,-21.39,-23.99,0,*7C
1498784419.34,26694,16.0,73184.5,2.65,-21.53,-23.99,0,*77
1498784420.59,26695,16.0,73184.8,2.65,-21.53,-24.11,0,*71
1498784421.81,26696,16.0,73182.0,2.65,-21.43,-24.11,0,*73
1498784423.04,26697,16.0,73170.3,2.65,-21.73,-24.25,0,*76
1498784424.26,26698,16.0,73174.3,2.65,-21.73,-24.15,0,*7A
1498784425.53,26699,16.0,73180.5,2.67,-21.67,-24.11,0,*78
1498784426.78,26700,16.0,73182.5,2.63,-21.83,-24.31,0,*75
1498784428.02,26701,16.0,73182.3,2.65,-21.67,-24.11,0,*7A
1498784429.27,26702,16.0,73186.3,2.63,-21.97,-24.31,0,*72
1498784430.49,26703,16.06,73186.3,2.65,-21.77,-24.11,0,*79
1498784431.77,26704,16.0,73184.5,2.63,-21.83,-24.21,0,*70
1498784433.01,26705,16.0,73180.3,2.63,-21.83,-24.05,0,*77
1498784434.23,26706,16.0,73184.0,2.63,-21.93,-23.89,0,*76
1498784435.45,26707,16.0,73182.8,2.65,-21.77,-23.95,0,*76
1498784436.72,26708,16.0,73186.5,2.63,-21.97,-23.99,0,*7D
1498784437.96,26709,16.0,73184.3,2.63,-21.97,-24.05,0,*7E
1498784439.2,26710,16.0,73178.0,2.63,-21.97,-24.05,0,*76
1498784440.43,26711,16.0,73192.3,2.65,-22.03,-24.25,0,*7D
1498784441.68,26712,16.0,73178.5,2.63,-22.11,-24.21,0,*7F
1498784442.92,26713,16.0,73174.8,2.63,-21.83,-23.89,0,*73
1498784444.16,26714,16.0,73164.3,2.63,-21.83,-23.89,0,*74
1498784445.39,26715,16.0,73166.0,2.63,-22.07,-24.15,0,*78
1498784446.65,26716,16.0,73166.5,2.65,-22.17,-24.41,0,*7D
1498784447.9,26717,16.0,73166.0,2.65,-22.31,-24.41,0,*78
1498784449.14,26718,16.0,73166.3,2.63,-22.41,-24.67,0,*72
1498784450.38,26719,16.0,73174.0,2.63,-22.53,-24.67,0,*70
1498784451.6,26720,16.0,73178.8,2.63,-22.27,-24.47,0,*7B
1498784452.85,26721,16.0,73164.8,2.63,-22.07,-24.21,0,*78
1498784454.09,26722,16.0,73166.5,2.63,-22.21,-24.31,0,*7E
1498784455.31,26723,16.0,73172.8,2.63,-22.41,-24.35,0,*7D
1498784456.53,26724,16.0,73176.5,2.63,-22.41,-24.61,0,*7B
1498784457.75,26725,16.0,73178.8,2.63,-22.27,-24.31,0,*7F
1498784458.96,26726,16.0,73186.5,2.63,-22.27,-24.35,0,*78
1498784460.21,26727,16.0,73180.5,2.63,-22.57,-24.67,0,*79
1498784461.41,26728,16.0,73180.0,2.61,-22.41,-24.47,0,*71
1498784462.61,26729,16.0,73180.3,2.65,-22.53,-24.61,0,*73
1498784463.82,26730,16.0,73186.0,2.61,-22.53,-24.61,0,*7F
1498784465.04,26731,16.0,73186.3,2.61,-22.53,-24.67,0,*78
1498784466.24,26732,16.0,73186.8,2.61,-22.57,-24.77,0,*7E
1498784467.47,26733,16.0,73188.5,2.61,-22.53,-24.67,0,*7A
1498784468.67,26734,16.0,73188.8,2.61,-22.57,-24.61,0,*7F
1498784469.87,26735,16.0,73186.8,2.61,-22.57,-24.61,0,*7E
1498784471.07,26736,16.0,73192.3,2.61,-22.57,-24.61,0,*7D
1498784472.28,26737,16.0,73188.3,2.61,-22.53,-24.51,0,*7B
1498784473.53,26738,16.0,73180.5,2.61,-22.21,-24.21,0,*76
1498784474.81,26739,16.0,73178.3,2.59,-22.31,-24.25,0,*79
1498784476.0,26740,16.0,73184.0,2.61,-22.27,-24.35,0,*7A
1498784477.2,26741,16.0,73188.8,2.61,-22.37,-24.47,0,*7F
1498784478.45,26742,16.0,73190.3,2.59,-22.57,-24.67,0,*73
1498784479.72,26743,16.0,73184.3,2.59,-22.73,-24.67,0,*74
1498784480.96,26744,16.0,73190.3,2.59,-22.63,-24.71,0,*75
1498784482.19,26745,16.0,73190.5,2.57,-22.57,-24.67,0,*7A
1498784483.44,26746,16.0,73192.0,2.59,-22.57,-24.83,0,*7D
1498784484.7,26747,16.0,73192.3,2.59,-22.57,-24.71,0,*71
1498784485.94,26748,16.0,73192.5,2.59,-22.63,-24.83,0,*74
1498784487.19,26749,16.0,73194.3,2.59,-22.63,-24.71,0,*78
1498784488.44,26750,16.0,73196.5,2.59,-22.57,-24.67,0,*70
1498784489.69,26751,16.0,73188.8,2.59,-22.47,-24.57,0,*73
1498784490.96,26752,16.0,73190.8,2.59,-22.73,-24.87,0,*7A
1498784492.16,26753,16.0,73194.8,2.53,-22.83,-24.97,0,*7F
1498784493.39,26754,16.0,73192.5,2.53,-22.77,-24.93,0,*77
1498784494.61,26755,16.0,73194.5,2.57,-22.63,-24.83,0,*76
1498784495.81,26756,16.0,73192.0,2.53,-22.67,-24.77,0,*7E
1498784497.01,26757,16.0,73188.3,2.53,-22.67,-24.77,0,*7F
1498784498.27,26758,16.0,73186.0,2.53,-22.77,-24.87,0,*7E
1498784499.51,26759,16.0,73190.5,2.57,-22.73,-24.83,0,*7B
1498784500.74,26760,16.0,73190.3,2.53,-22.77,-24.77,0,*7A
1498784501.94,26761,16.0,73196.5,2.53,-22.63,-24.77,0,*7E
1498784503.15,26762,16.0,73192.8,2.57,-22.57,-24.57,0,*7C
1498784504.34,26763,16.0,73196.5,2.53,-22.63,-24.61,0,*7B
1498784505.57,26764,16.0,73194.0,2.53,-22.63,-24.71,0,*7D
1498784506.79,26765,16.0,73198.3,2.53,-22.63,-24.71,0,*7C
1498784508.03,26766,16.0,73198.8,2.53,-22.77,-24.77,0,*7C
1498784509.25,26767,16.0,73198.0,2.57,-22.17,-24.05,0,*7A
1498784510.47,26768,16.0,73188.5,2.53,-21.83,-23.89,0,*7C
1498784511.7,26769,16.0,73180.5,2.53,-21.83,-23.75,0,*7E
1498784512.92,26770,16.06,73180.5,2.57,-21.63,-23.53,0,*78
1498784514.14,26771,16.0,73154.0,2.57,-21.47,-23.29,0,*72
1498784515.34,26772,16.0,73136.0,2.57,-21.47,-23.39,0,*70
1498784516.59,26773,16.0,73112.3,2.59,-21.23,-23.09,0,*7E
1498784517.79,26774,16.0,73124.0,2.61,-21.13,-22.93,0,*73
1498784519.02,26775,16.0,73126.8,2.59,-21.17,-23.09,0,*7F
1498784520.25,26776,16.0,73130.5,2.61,-21.17,-23.03,0,*7D
1498784521.47,26777,16.0,73126.8,2.61,-21.43,-23.23,0,*7F
1498784522.69,26778,16.0,73122.5,2.61,-21.43,-23.19,0,*79
1498784523.94,26779,16.0,73124.5,2.63,-21.47,-23.19,0,*7E
1498784525.2,26780,16.0,73134.8,2.65,-21.53,-23.29,0,*78
1498784526.4,26781,16.0,73140.8,2.65,-21.73,-23.43,0,*77
1498784527.65,26782,16.0,73152.0,2.65,-21.67,-23.29,0,*7D
1498784528.86,26783,16.0,73152.3,2.65,-21.77,-23.43,0,*71
1498784530.09,26784,16.0,73148.0,2.65,-21.67,-23.13,0,*72
1498784531.31,26785,16.0,73154.8,2.67,-21.63,-23.13,0,*75
1498784532.57,26786,16.0,73142.8,2.69,-21.67,-23.09,0,*77
1498784533.84,26787,16.0,73146.3,2.67,-22.31,-23.69,0,*7E
1498784535.12,26788,16.0,73156.3,2.69,-22.31,-23.53,0,*76
1498784536.36,26789,16.0,73166.8,2.69,-22.03,-23.29,0,*7B
1498784537.62,26790,16.0,73168.0,2.69,-22.31,-23.39,0,*73
1498784538.9,26791,16.0,73154.3,2.69,-22.17,-23.29,0,*77
1498784540.14,26792,16.0,73150.8,2.69,-22.41,-23.53,0,*7A
1498784541.37,26793,16.0,73168.0,2.71,-22.53,-23.53,0,*71
1498784542.63,26794,16.0,73156.8,2.69,-22.47,-23.59,0,*70
1498784543.86,26795,16.06,73168.3,2.69,-22.57,-23.75,0,*7E
1498784545.08,26796,16.0,73162.5,2.71,-22.87,-23.69,0,*74
1498784546.31,26797,16.0,73170.0,2.69,-22.97,-23.79,0,*7C
1498784547.56,26798,16.0,73168.5,2.69,-22.83,-23.69,0,*77
1498784548.78,26799,16.0,73168.3,2.69,-22.63,-23.39,0,*7D
1498784550.02,26800,16.0,73168.3,2.69,-22.63,-23.29,0,*73
1498784551.28,26801,16.0,73166.3,2.69,-23.09,-23.53,0,*72
1498784552.52,26802,16.0,73170.0,2.69,-22.97,-23.43,0,*76
1498784553.77,26803,16.0,73176.5,2.69,-22.93,-23.29,0,*7F
1498784555.02,26804,16.0,73176.5,2.67,-22.83,-23.23,0,*7D
1498784556.28,26805,16.0,73164.3,2.67,-22.77,-23.13,0,*74
1498784557.53,26806,16.0,73174.5,2.69,-22.93,-23.29,0,*7A
1498784558.81,26807,16.0,73164.8,2.67,-22.77,-23.23,0,*75
1498784560.07,26808,16.0,73166.5,2.69,-22.77,-23.13,0,*77
1498784561.3,26809,16.0,73166.5,2.69,-22.67,-23.09,0,*7C
1498784562.53,26810,16.06,73168.0,2.67,-22.67,-23.13,0,*71
1498784563.75,26811,16.0,73166.3,2.71,-22.63,-23.23,0,*70
1498784564.98,26812,16.0,73170.5,2.67,-22.67,-23.13,0,*73
1498784566.23,26813,16.0,73172.3,2.69,-22.77,-23.39,0,*75
1498784567.46,26814,16.0,73172.3,2.67,-22.97,-23.59,0,*74
1498784568.68,26815,16.0,73176.0,2.67,-22.83,-23.59,0,*70
1498784569.93,26816,16.0,73178.8,2.67,-22.97,-23.53,0,*7C
1498784571.15,26817,16.0,73174.3,2.67,-22.83,-23.59,0,*72
1498784572.37,26818,16.0,73174.3,2.67,-22.83,-23.59,0,*7D
1498784573.59,26819,16.06,73172.5,2.67,-22.93,-23.59,0,*7D
1498784574.82,26820,16.0,73172.0,2.67,-22.93,-23.59,0,*77
1498784576.04,26821,16.0,73174.5,2.67,-22.83,-23.59,0,*77
1498784577.29,26822,16.06,73170.8,2.65,-23.03,-23.65,0,*70
1498784578.51,26823,16.0,73170.0,2.65,-23.03,-23.79,0,*7C
1498784579.76,26824,16.0,73166.8,2.67,-22.97,-23.69,0,*74
1498784580.99,26825,16.0,73168.0,2.67,-22.93,-23.59,0,*72
1498784582.23,26826,16.0,73172.0,2.67,-22.97,-23.69,0,*76
1498784583.46,26827,16.0,73172.8,2.65,-23.19,-23.75,0,*7F
1498784584.69,26828,16.0,73174.5,2.65,-23.13,-23.49,0,*75
1498784585.9,26829,16.0,73174.0,2.65,-23.13,-23.43,0,*7E
1498784587.15,26830,16.0,73178.8,2.63,-23.09,-23.33,0,*7C
1498784588.4,26831,16.0,73182.3,2.63,-23.19,-23.09,0,*75
1498784589.62,26832,16.0,73180.3,2.65,-23.29,-22.83,0,*70
1498784590.87,26833,16.0,73176.8,2.63,-23.33,-22.87,0,*78
1498784592.13,26834,16.0,73176.0,2.65,-23.19,-22.47,0,*7D
1498784593.4,26835,16.0,73174.0,2.63,-23.19,-21.97,0,*74
1498784594.6,26836,16.0,73178.0,2.65,-22.83,-21.39,0,*77
1498784595.85,26837,16.0,73180.5,2.63,-22.67,-21.03,0,*73
1498784597.1,26838,16.0,73176.5,2.65,-22.31,-20.35,0,*7D
1498784598.37,26839,16.0,73168.8,2.63,-22.21,-20.19,0,*75
1498784599.62,26840,16.0,73162.0,2.63,-22.21,-19.91,0,*71
1498784600.82,26841,16.06,73170.8,2.65,-22.37,-19.75,0,*7B
1498784602.02,26842,16.0,73168.8,2.65,-22.37,-19.51,0,*7E
1498784603.25,26843,16.06,73160.8,2.65,-22.31,-19.13,0,*7F
1498784604.5,26844,16.0,73166.3,2.67,-22.17,-18.65,0,*7E
1498784605.7,26845,16.06,73160.5,2.65,-22.03,-18.21,0,*78
1498784606.93,26846,16.0,73150.3,2.65,-21.87,-17.73,0,*7C
1498784608.13,26847,16.0,73148.0,2.65,-21.73,-17.31,0,*70
1498784609.33,26848,16.0,73156.3,2.65,-21.73,-16.97,0,*72
1498784610.53,26849,16.0,73158.0,2.65,-21.43,-16.41,0,*7B
1498784611.78,26850,16.0,73150.3,2.67,-21.23,-16.03,0,*71
1498784613.03,26851,16.0,73166.0,2.67,-20.93,-15.57,0,*78
1498784614.28,26852,16.0,73156.8,2.67,-20.59,-15.21,0,*7C
1498784615.54,26853,16.0,73176.0,2.69,-20.53,-15.07,0,*7D
1498784616.82,26854,16.0,73178.8,2.69,-20.53,-14.93,0,*76
1498784618.06,26855,16.0,73168.3,2.69,-20.29,-14.83,0,*7B
1498784619.32,26856,16.0,73168.5,2.69,-19.99,-14.83,0,*79
1498784620.58,26857,16.0,73158.3,2.69,-19.85,-14.89,0,*7F
1498784621.86,26858,16.0,73160.0,2.69,-19.65,-14.93,0,*75
1498784623.09,26859,16.0,73156.0,2.69,-19.37,-15.07,0,*7F
1498784624.37,26860,16.0,73162.0,2.67,-19.31,-15.21,0,*79
1498784625.61,26861,16.0,73166.8,2.67,-19.17,-15.49,0,*72
1498784626.84,26862,16.0,73166.5,2.69,-19.03,-15.75,0,*75
1498784628.09,26863,16.0,73170.0,2.67,-19.07,-16.17,0,*79
1498784629.35,26864,16.0,73160.0,2.69,-19.07,-16.65,0,*75
1498784630.59,26865,16.0,73140.0,2.69,-18.69,-16.75,0,*7C
1498784631.81,26866,16.0,73150.8,2.67,-18.25,-16.83,0,*70
1498784633.04,26867,16.0,73156.5,2.69,-18.41,-17.49,0,*7A
1498784634.3,26868,16.0,73164.3,2.69,-18.41,-18.01,0,*76
1498784635.53,26869,16.0,73164.3,2.69,-18.45,-18.69,0,*7D
1498784636.75,26870,16.0,73160.0,2.69,-18.45,-19.03,0,*78
1498784638.0,26871,16.0,73158.8,2.69,-18.59,-19.47,0,*74
1498784639.25,26872,16.0,73154.8,2.69,-18.89,-20.09,0,*7A
1498784640.5,26873,16.06,73158.8,2.71,-18.89,-20.53,0,*7D
1498784641.73,26874,16.0,73162.0,2.71,-18.99,-20.83,0,*76
1498784642.96,26875,16.0,73156.5,2.71,-19.41,-21.47,0,*7A
1498784644.16,26876,16.0,73152.5,2.71,-19.47,-21.77,0,*7C
1498784645.42,26877,16.0,73146.8,2.71,-19.57,-22.21,0,*7C
1498784646.65,26878,16.06,73148.5,2.71,-19.61,-22.53,0,*73
1498784647.88,26879,16.0,73152.0,2.71,-19.91,-22.77,0,*7B
1498784649.08,26880,16.0,73156.5,2.71,-20.25,-23.09,0,*70
1498784650.33,26881,16.0,73156.5,2.73,-20.25,-23.33,0,*7A
1498784651.58,26882,16.0,73166.5,2.73,-20.35,-23.39,0,*72
1498784652.81,26883,16.0,73160.0,2.71,-20.39,-23.53,0,*71
1498784654.03,26884,16.0,73158.0,2.71,-20.63,-23.69,0,*70
1498784655.28,26885,16.0,73166.3,2.73,-20.99,-23.89,0,*78
1498784656.48,26886,16.0,73164.5,2.71,-21.13,-24.05,0,*79
1498784657.74,26887,16.0,73162.8,2.73,-21.27,-24.31,0,*7A
1498784658.97,26888,16.0,73162.3,2.71,-21.67,-24.51,0,*75
1498784660.23,26889,16.0,73160.3,2.73,-21.67,-24.51,0,*76
1498784661.46,26890,16.0,73160.8,2.71,-21.83,-24.61,0,*75
1498784662.7,26891,16.0,73166.0,2.69,-21.97,-24.57,0,*7D
1498784663.93,26892,16.0,73164.3,2.69,-22.03,-24.57,0,*70
1498784665.15,26893,16.0,73164.8,2.69,-22.11,-24.57,0,*72
1498784666.43,26894,16.0,73168.0,2.69,-22.17,-24.67,0,*70
1498784667.68,26895,16.0,73166.3,2.69,-22.27,-24.67,0,*72
1498784668.88,26896,16.0,73164.8,2.71,-22.27,-24.77,0,*79
1498784670.16,26897,16.0,73164.3,2.69,-22.31,-24.71,0,*70
1498784671.39,26898,16.0,73168.8,2.71,-22.27,-24.67,0,*76
1498784672.62,26899,16.0,73168.3,2.67,-22.57,-24.77,0,*76
1498784673.84,26900,16.0,73166.8,2.69,-22.63,-24.77,0,*7E
1498784675.04,26901,16.0,73166.5,2.65,-22.67,-24.97,0,*79
1498784676.24,26902,16.0,73168.0,2.65,-22.67,-24.93,0,*7E
1498784677.49,26903,16.0,73164.0,2.67,-22.77,-24.93,0,*7C
1498784678.71,26904,16.0,73166.5,2.65,-22.73,-24.93,0,*7D
1498784679.91,26905,16.0,73168.3,2.65,-22.63,-24.77,0,*77
1498784681.13,26906,16.0,73164.3,2.67,-22.67,-24.77,0,*72
1498784682.36,26907,16.0,73162.0,2.67,-22.67,-24.77,0,*73
1498784683.6,26908,16.0,73162.5,2.63,-22.87,-25.03,0,*74
1498784684.8,26909,16.0,73166.5,2.65,-22.83,-24.93,0,*7F
1498784686.02,26910,16.0,73166.3,2.65,-22.83,-24.83,0,*76
1498784687.22,26911,16.0,73164.8,2.65,-22.87,-24.93,0,*72
1498784688.49,26912,16.0,73168.5,2.63,-23.03,-25.03,0,*72
1498784689.69,26913,16.0,73172.3,2.65,-22.87,-24.77,0,*7A
1498784690.97,26914,16.0,73168.0,2.63,-22.77,-24.83,0,*7F
1498784692.19,26915,16.0,73170.8,2.65,-22.73,-24.77,0,*77
1498784693.44,26916,16.0,73172.3,2.61,-22.77,-24.83,0,*7F
1498784694.66,26917,16.0,73176.8,2.61,-22.87,-24.83,0,*71
1498784695.91,26918,16.0,73176.0,2.63,-22.93,-24.87,0,*7D
1498784697.1,26919,16.0,73178.8,2.61,-22.87,-24.97,0,*7A
1498784698.35,26920,16.0,73178.8,2.61,-22.77,-24.87,0,*7E
1498784699.57,26921,16.0,73176.5,2.61,-22.87,-24.87,0,*70
1498784700.79,26922,16.0,73180.5,2.61,-22.87,-24.83,0,*77
1498784702.06,26923,16.0,73182.5,2.63,-23.03,-24.87,0,*7D
1498784703.3,26924,16.0,73182.5,2.59,-23.09,-25.09,0,*7E
1498784704.5,26925,16.0,73182.3,2.61,-23.09,-25.13,0,*7F
1498784705.75,26926,16.0,73180.3,2.59,-23.13,-25.03,0,*7D
1498784706.98,26927,16.06,73184.5,2.59,-23.13,-25.09,0,*76
1498784708.22,26928,16.0,73184.0,2.59,-23.09,-25.09,0,*72
1498784709.47,26929,16.0,73184.5,2.61,-23.19,-25.03,0,*73
1498784710.67,26930,16.0,73188.0,2.61,-23.13,-25.09,0,*7B
1498784711.9,26931,16.0,73186.5,2.59,-23.09,-24.93,0,*78
1498784713.15,26932,16.0,73184.8,2.59,-23.09,-25.03,0,*73
1498784714.37,26933,16.0,73186.5,2.59,-23.13,-24.93,0,*71
1498784715.62,26934,16.06,73188.0,2.57,-23.19,-25.03,0,*7A
1498784716.82,26935,16.0,73186.8,2.57,-22.97,-24.93,0,*74
1498784718.05,26936,16.0,73184.8,2.57,-23.13,-25.03,0,*72
1498784719.28,26937,16.0,73184.5,2.59,-23.13,-25.09,0,*77
1498784720.53,26938,16.0,73182.3,2.59,-23.13,-25.03,0,*72
1498784721.74,26939,16.0,73180.3,2.57,-23.09,-25.09,0,*7C
1498784722.96,26940,16.0,73180.3,2.53,-23.03,-24.97,0,*7A
1498784724.22,26941,16.06,73186.8,2.59,-23.09,-24.87,0,*7A
1498784725.44,26942,16.0,73188.8,2.57,-23.09,-24.87,0,*77
1498784726.67,26943,16.0,73184.3,2.53,-23.03,-25.13,0,*74
1498784727.87,26944,16.0,73188.5,2.53,-23.13,-24.97,0,*7F
1498784729.08,26945,16.0,73186.8,2.53,-23.13,-25.09,0,*78
1498784730.31,26946,16.0,73184.0,2.53,-23.03,-25.13,0,*71
1498784731.51,26947,16.0,73178.8,2.57,-22.97,-24.93,0,*71
1498784732.73,26948,16.0,73176.8,2.57,-22.83,-24.87,0,*7E
1498784733.94,26949,16.0,73176.0,2.53,-22.97,-24.93,0,*7B
1498784735.21,26950,16.0,73180.3,2.51,-23.03,-25.03,0,*75
1498784736.41,26951,16.0,73174.3,2.53,-22.83,-24.93,0,*77
1498784737.64,26952,16.06,73178.5,2.53,-22.77,-24.77,0,*75
1498784738.84,26953,16.0,73170.5,2.53,-22.63,-24.61,0,*76
1498784740.07,26954,16.0,73174.0,2.53,-22.67,-24.71,0,*74
1498784741.32,26955,16.0,73174.3,2.53,-22.77,-24.87,0,*7D
1498784742.55,26956,16.0,73174.0,2.53,-22.83,-24.87,0,*75
1498784743.77,26957,16.0,73172.8,2.53,-22.83,-24.87,0,*74
1498784745.0,26958,16.0,73176.0,2.53,-22.77,-24.93,0,*75
1498784746.23,26959,16.0,73176.8,2.57,-22.97,-25.03,0,*76
1498784747.45,26960,16.0,73178.3,2.53,-23.03,-24.97,0,*78
1498784748.66,26961,16.0,73176.3,2.53,-22.97,-24.93,0,*71
1498784749.85,26962,16.0,73176.5,2.53,-22.87,-24.93,0,*73
1498784751.07,26963,16.0,73178.5,2.51,-22.87,-24.93,0,*70
1498784752.32,26964,16.0,73182.8,2.51,-23.03,-24.93,0,*7A
1498784753.55,26965,16.0,73180.8,2.51,-23.09,-24.97,0,*75
1498784754.8,26966,16.06,73182.3,2.51,-23.03,-24.97,0,*7C
1498784756.05,26967,16.06,73182.5,2.51,-23.03,-24.97,0,*7D
1498784757.3,26968,16.0,73184.3,2.51,-23.03,-24.97,0,*72
1498784758.55,26969,16.0,73180.3,2.51,-23.09,-25.03,0,*75
1498784759.81,26970,16.0,73178.5,2.49,-23.19,-25.03,0,*75
1498784761.06,26971,16.0,73176.0,2.51,-23.19,-24.97,0,*71
1498784762.29,26972,16.0,73178.0,2.49,-23.33,-25.13,0,*7E
1498784763.52,26973,16.0,73176.5,2.49,-23.33,-25.13,0,*7F
1498784764.77,26974,16.06,73180.0,2.49,-23.23,-25.03,0,*78
1498784765.99,26975,16.0,73180.0,2.49,-23.23,-25.13,0,*78
1498784767.24,26976,16.0,73180.8,2.49,-23.23,-25.03,0,*7A
1498784768.5,26977,16.0,73186.0,2.49,-23.23,-25.03,0,*7B
1498784769.7,26978,16.0,73182.3,2.49,-23.09,-24.97,0,*70
1498784770.95,26979,16.0,73180.8,2.47,-23.23,-25.09,0,*71
1498784772.2,26980,16.0,73168.0,2.47,-23.23,-24.97,0,*71
1498784773.45,26981,16.0,73178.3,2.47,-22.97,-24.83,0,*7B
1498784774.68,26982,16.0,73180.0,2.47,-22.97,-24.97,0,*7D
1498784775.9,26983,16.0,73180.3,2.47,-22.97,-24.97,0,*7C
1498784777.13,26984,16.0,73180.8,2.45,-22.87,-24.87,0,*79
1498784778.37,26985,16.0,73164.0,2.47,-22.63,-24.83,0,*74
1498784779.6,26986,16.0,73160.0,2.45,-22.57,-24.67,0,*78
1498784780.82,26987,16.0,73166.0,2.45,-22.27,-24.67,0,*7E
1498784782.02,26988,16.0,73168.5,2.45,-22.11,-24.57,0,*77
1498784783.27,26989,16.0,73172.0,2.47,-21.77,-24.41,0,*70
1498784784.51,26990,16.06,73176.3,2.47,-21.77,-24.67,0,*7C
1498784785.71,26991,16.0,73166.3,2.45,-21.63,-24.57,0,*79
1498784786.96,26992,16.0,73166.3,2.47,-21.17,-24.25,0,*7E
1498784788.22,26993,16.0,73170.5,2.45,-21.03,-24.21,0,*7C
1498784789.44,26994,16.0,73160.3,2.47,-20.73,-24.05,0,*79
1498784790.66,26995,16.0,73156.3,2.47,-20.59,-23.89,0,*73
1498784791.89,26996,16.0,73156.0,2.47,-20.39,-23.75,0,*75
1498784793.11,26997,16.0,73156.3,2.47,-20.39,-23.89,0,*77
1498784794.36,26998,16.0,73164.5,2.47,-19.91,-23.53,0,*77
1498784795.61,26999,16.0,73152.5,2.47,-19.31,-23.13,0,*78
1498784796.84,27000,16.0,73150.5,2.47,-18.99,-22.97,0,*7E
1498784798.07,27001,16.0,73160.8,2.51,-19.03,-23.09,0,*7C
1498784799.33,27002,16.0,73162.0,2.49,-19.27,-23.49,0,*74
1498784800.58,27003,16.0,73154.5,2.49,-19.41,-23.69,0,*77
1498784801.83,27004,16.0,73146.8,2.51,-18.93,-23.39,0,*72
1498784803.08,27005,16.0,73140.0,2.51,-19.13,-23.65,0,*73
1498784804.37,27006,16.0,73142.5,2.51,-19.27,-23.85,0,*79
1498784805.62,27007,16.06,73152.0,2.49,-19.31,-23.99,0,*7B
1498784806.88,27008,16.0,73156.0,2.51,-19.27,-24.05,0,*78
1498784808.13,27009,16.0,73160.0,2.51,-19.17,-23.99,0,*78
1498784809.36,27010,16.06,73166.0,2.49,-18.99,-23.99,0,*7E
1498784810.59,27011,16.0,73160.5,2.49,-18.99,-24.21,0,*7B
1498784811.84,27012,16.0,73156.0,2.51,-18.65,-23.99,0,*76
1498784813.06,27013,16.0,73146.3,2.49,-18.49,-23.99,0,*70
1498784814.28,27014,16.0,73154.0,2.49,-18.25,-23.99,0,*7D
1498784815.48,27015,16.06,73162.3,2.49,-18.21,-24.05,0,*7A
1498784816.7,27016,16.0,73154.8,2.49,-18.11,-24.15,0,*7B
1498784817.96,27017,16.0,73162.3,2.51,-17.49,-23.85,0,*7F
1498784819.18,27018,16.06,73168.3,2.49,-17.49,-23.95,0,*78
1498784820.43,27019,16.0,73152.3,2.49,-17.17,-23.69,0,*71
1498784821.68,27020,16.06,73162.3,2.51,-16.89,-23.49,0,*76
1498784822.93,27021,16.0,73170.0,2.51,-16.75,-23.49,0,*74
1498784824.18,27022,16.0,73142.0,2.51,-16.55,-23.33,0,*78
1498784825.45,27023,16.0,73140.0,2.51,-16.69,-23.69,0,*79
1498784826.67,27024,16.0,73144.3,2.53,-16.93,-23.95,0,*7A
1498784827.89,27025,16.0,73144.3,2.53,-16.97,-23.99,0,*73
1498784829.11,27026,16.0,73144.3,2.53,-16.93,-23.95,0,*78
1498784830.31,27027,16.0,73136.0,2.57,-16.75,-23.75,0,*7B
1498784831.5,27028,16.06,73160.3,2.57,-16.93,-23.89,0,*7F
1498784832.69,27029,16.0,73152.3,2.57,-16.93,-23.89,0,*7E
1498784833.91,27030,16.0,73138.3,2.57,-16.75,-23.69,0,*70
1498784835.13,27031,16.0,73152.5,2.57,-17.07,-23.89,0,*7B
1498784836.36,27032,16.0,73154.5,2.57,-16.97,-23.85,0,*7C
1498784837.58,27033,16.0,73152.0,2.57,-17.25,-24.05,0,*7A
1498784838.81,27034,16.0,73146.3,2.57,-17.25,-24.05,0,*7D
1498784840.03,27035,16.06,73158.8,2.53,-17.31,-24.25,0,*7F
1498784841.25,27036,16.0,73146.3,2.57,-17.25,-24.35,0,*7C
1498784842.5,27037,16.0,73152.8,2.57,-17.41,-24.25,0,*7E
1498784843.73,27038,16.0,73172.0,2.57,-17.49,-24.25,0,*79
1498784844.93,27039,16.0,73168.0,2.57,-16.79,-23.75,0,*78
1498784846.13,27040,16.0,73184.0,2.57,-16.97,-23.75,0,*76
1498784847.35,27041,16.0,73180.5,2.57,-17.49,-24.11,0,*70
1498784848.57,27042,16.0,73188.3,2.57,-17.79,-24.35,0,*76
1498784849.79,27043,16.0,73184.3,2.57,-17.87,-24.41,0,*75
1498784851.01,27044,16.0,73190.3,2.57,-18.01,-24.35,0,*70
1498784852.26,27045,16.0,73190.8,2.57,-18.31,-24.41,0,*71
1498784853.49,27046,16.0,73192.0,2.57,-18.31,-24.35,0,*71
1498784854.71,27047,16.0,73198.8,2.57,-18.69,-24.41,0,*7E
1498784855.91,27048,16.0,73204.3,2.53,-18.83,-24.51,0,*70
1498784857.12,27049,16.0,73210.3,2.57,-19.17,-24.57,0,*7F
1498784858.32,27050,16.0,73202.0,2.53,-18.79,-24.05,0,*7D
1498784859.55,27051,16.0,73192.0,2.57,-19.17,-24.25,0,*73
1498784860.8,27052,16.0,73190.0,2.53,-19.41,-24.25,0,*77
1498784862.04,27053,16.0,73184.5,2.53,-19.41,-24.11,0,*71
1498784863.28,27054,16.0,73190.8,2.53,-19.81,-24.15,0,*7E
1498784864.53,27055,16.0,73194.8,2.57,-19.85,-24.21,0,*78
1498784865.76,27056,16.0,73196.3,2.57,-19.99,-24.21,0,*76
1498784866.96,27057,16.0,73202.0,2.53,-20.59,-24.47,0,*75
1498784868.19,27058,16.0,73200.0,2.53,-20.63,-24.41,0,*75
1498784869.42,27059,16.0,73196.8,2.53,-20.89,-24.41,0,*70
1498784870.64,27060,16.0,73192.8,2.53,-20.73,-24.11,0,*7A
1498784871.88,27061,16.0,73194.8,2.53,-20.79,-23.99,0,*76
1498784873.1,27062,16.0,73198.5,2.53,-21.09,-24.11,0,*74
1498784874.34,27063,16.0,73200.5,2.53,-21.23,-23.99,0,*7A
1498784875.57,27064,16.0,73196.0,2.51,-21.43,-24.05,0,*7B
1498784876.83,27065,16.0,73198.8,2.51,-21.57,-24.15,0,*7E
1498784878.06,27066,16.0,73192.5,2.51,-21.73,-24.05,0,*7A
1498784879.31,27067,16.0,73196.3,2.51,-21.87,-24.05,0,*70
1498784880.58,27068,16.0,73198.0,2.51,-21.97,-23.99,0,*7C
1498784881.8,27069,16.06,73202.3,2.49,-22.11,-23.95,0,*75
1498784883.0,27070,16.0,73198.5,2.49,-22.37,-23.79,0,*7B
1498784884.25,27071,16.0,73196.3,2.51,-22.37,-23.53,0,*7B
1498784885.48,27072,16.0,73194.3,2.49,-22.41,-23.23,0,*77
1498784886.68,27073,16.0,73192.5,2.49,-22.37,-22.93,0,*7D
1498784887.91,27074,16.0,73190.5,2.49,-22.41,-22.73,0,*75
1498784889.11,27075,16.0,73192.0,2.49,-22.57,-22.53,0,*71
1498784890.32,27076,16.0,73188.8,2.49,-22.53,-22.11,0,*70
1498784891.55,27077,16.06,73194.5,2.49,-22.41,-21.87,0,*7E
1498784892.77,27078,16.06,73192.5,2.49,-22.37,-21.57,0,*7D
1498784893.98,27079,16.0,73190.0,2.49,-22.27,-21.17,0,*79
1498784895.17,27080,16.06,73190.0,2.45,-22.27,-21.09,0,*7C
1498784896.38,27081,16.0,73186.5,2.45,-22.27,-20.69,0,*7A
1498784897.61,27082,16.06,73188.3,2.45,-21.97,-20.25,0,*79
1498784898.86,27083,16.06,73190.0,2.45,-21.83,-19.81,0,*79
1498784900.08,27084,16.0,73190.8,2.47,-21.77,-19.51,0,*7A
1498784901.32,27085,16.06,73188.0,2.47,-21.67,-19.07,0,*79
1498784902.55,27086,16.06,73188.5,2.45,-21.47,-18.55,0,*7C
1498784903.77,27087,16.0,73188.8,2.47,-21.47,-18.41,0,*7A
1498784905.0,27088,16.06,73190.3,2.45,-21.39,-17.97,0,*7A
1498784906.22,27089,16.06,73190.5,2.45,-21.23,-17.49,0,*73
1498784907.47,27090,16.0,73186.3,2.47,-21.17,-17.21,0,*70
1498784908.7,27091,16.0,73184.3,2.45,-20.99,-16.79,0,*78